Location: Bogis-Bossey
(46.3500°N, 6.1667°E)
Time: 18:36:13
(UTC+00:00)

Cosmos 1833 Rocket - Pass Details

Date: 17 August 2022
Orbit: 831 x 841 km, 71.0° (Epoch: 01 October)

Event Time Altitude Azimuth Distance (km) Brightness Sun altitude
Rises 21:07:55 0° 334° (NNW) 3,405 7.2 -21.4°
Reaches altitude 10° 21:10:23 10° 335° (NNW) 2,467 6.2 -21.7°
Maximum altitude 21:16:03 79° 62° (ENE) 862 2.6 -22.3°
Enters shadow 21:17:32 51° 139° (SE) 1,053 2.7 -22.5°
